EW9805 Weather Reports


time (UTC)temp
C
wind
direction
speed
KPH
gust
KPH
rain 1hr
cm
rain 24hr
cm
rain mn
cm
humidity
%
barometer
mb
20260507075830 11 320 8.0 14.5 0.00 0.97 0.00 56 1010.2
20260507075329 11 315 8.0 29.0 0.00 0.97 0.00 56 1010.3
20260507074830 11 349 11.3 29.0 0.00 0.97 0.00 54 1010.2
20260507074351 11 355 12.9 25.7 0.00 0.97 0.00 57 1010.1
20260507073830 11 300 9.7 20.9 0.00 0.97 0.00 56 1010.4
20260507073332 11 36 6.4 20.9 0.00 0.97 0.00 57 1010.4
20260507072811 11 351 4.8 14.5 0.00 0.97 0.00 59 1010.3
20260507072311 11 355 1.6 11.3 0.00 0.97 0.00 60 1010.4
20260507071812 11 294 3.2 16.1 0.00 0.97 0.00 60 1010.4
20260507071313 11 317 4.8 16.1 0.00 0.97 0.00 59 1010.4
20260507070813 11 285 4.8 17.7 0.00 0.97 0.00 60 1010.4
20260507070312 11 331 8.0 17.7 0.00 0.97 0.00 60 1010.4
20260507065814 11 309 6.4 9.7 0.00 0.97 0.00 62 1010.5
20260507065315 11 313 6.4 20.9 0.00 0.97 0.00 62 1010.4
20260507064816 11 349 8.0 22.5 0.00 0.97 0.00 63 1010.4
20260507064315 11 266 8.0 22.5 0.00 0.97 0.00 63 1010.4
20260507063816 11 325 4.8 14.5 0.00 0.97 0.00 66 1010.3
20260507063316 11 348 8.0 19.3 0.00 0.97 0.00 68 1010.3
20260507062816 11 355 4.8 19.3 0.00 0.97 0.00 71 1010.4
20260507062315 11 348 8.0 16.1 0.00 0.97 0.00 71 1010.3
20260507061814 12 10 4.8 12.9 0.00 0.97 0.00 72 1010.4
20260507061316 12 323 4.8 12.9 0.00 0.97 0.00 74 1010.4
20260507060835 12 331 1.6 16.1 0.00 0.97 0.00 75 1010.4
20260507060313 12 348 4.8 16.1 0.00 0.97 0.00 76 1010.4
20260507055830 12 319 3.2 9.7 0.00 0.97 0.00 77 1010.4
20260507055351 12 336 0.0 9.7 0.00 0.97 0.00 79 1010.3
20260507054813 12 343 1.6 16.1 0.00 0.97 0.00 78 1010.3
20260507054312 12 336 6.4 16.1 0.00 0.97 0.00 79 1010.2
20260507053811 12 346 6.4 12.9 0.00 0.97 0.00 79 1010.2
20260507053311 12 305 4.8 12.9 0.00 0.97 0.00 80 1010.3
20260507052811 12 316 3.2 8.0 0.00 0.97 0.00 81 1010.2
20260507052312 12 110 0.0 3.2 0.00 0.97 0.00 81 1010.3
20260507051812 12 110 0.0 3.2 0.00 0.97 0.00 81 1010.3
20260507051312 12 56 0.0 3.2 0.00 0.97 0.00 81 1010.3
20260507050814 12 56 0.0 4.8 0.00 0.97 0.00 81 1010.5
20260507050316 12 15 0.0 6.4 0.00 0.97 0.00 81 1010.2
20260507045837 12 46 3.2 8.0 0.00 0.97 0.00 81 1010.1
20260507045337 12 44 3.2 8.0 0.00 0.97 0.00 81 1010.3
20260507044816 12 61 4.8 9.7 0.00 0.97 0.00 81 1010.3
20260507044315 12 344 4.8 9.7 0.00 0.97 0.00 81 1010.4
20260507043816 12 355 1.6 9.7 0.00 0.97 0.00 81 1010.6
20260507043333 12 360 4.8 9.7 0.00 0.97 0.00 81 1010.6
20260507042812 12 360 3.2 9.7 0.00 0.97 0.00 81 1010.3
20260507042333 12 5 4.8 16.1 0.00 0.97 0.00 80 1010.2
20260507041814 12 348 6.4 16.1 0.00 0.97 0.00 80 1010.1
20260507041312 12 350 8.0 14.5 0.00 0.97 0.00 80 1010.1
20260507040812 13 299 8.0 14.5 0.00 0.97 0.00 79 1010.1
20260507040331 13 18 8.0 12.9 0.00 0.97 0.00 78 1010.2
20260507035825 13 9 6.4 16.1 0.00 0.97 0.97 77 1010.2
20260507035324 13 333 9.7 16.1 0.00 0.97 0.97 77 1010.3
20260507034826 13 347 4.8 8.0 0.00 0.97 0.97 77 1010.3
20260507034327 13 342 3.2 4.8 0.00 0.97 0.97 77 1009.9
20260507033847 13 340 1.6 16.1 0.00 0.97 0.97 77 1010.2
20260507033327 13 306 1.6 16.1 0.00 0.97 0.97 77 1009.8
20260507032826 13 314 3.2 16.1 0.00 0.97 0.97 77 1009.9
20260507032328 13 293 8.0 22.5 0.00 0.97 0.97 77 1009.8
20260507031829 13 344 11.3 22.5 0.00 0.97 0.97 78 1009.5
20260507031310 13 317 8.0 17.7 0.00 0.97 0.97 78 1009.4
20260507030811 13 5 4.8 16.1 0.00 0.97 0.97 79 1009.5
20260507030313 13 302 3.2 17.7 0.00 0.97 0.97 78 1009.9
20260507025813 13 351 9.7 20.9 0.00 0.97 0.97 78 1009.7
20260507025314 13 290 6.4 22.5 0.00 0.97 0.97 78 1009.6
20260507024834 13 292 9.7 20.9 0.00 0.97 0.97 77 1009.4
20260507024312 13 322 11.3 20.9 0.00 0.97 0.97 77 1009.6
20260507023813 13 279 8.0 20.9 0.00 0.97 0.97 77 1009.6
20260507023314 13 337 4.8 25.7 0.00 0.97 0.97 78 1009.7
20260507022815 13 351 12.9 25.7 0.00 0.97 0.97 77 1009.6
20260507022315 13 14 8.0 24.1 0.00 0.97 0.97 77 1009.6
20260507021816 13 286 8.0 16.1 0.00 0.97 0.97 77 1009.5
20260507021335 14 349 1.6 16.1 0.00 0.97 0.97 78 1009.4
20260507020815 14 5 1.6 19.3 0.00 0.97 0.97 79 1009.4
20260507020335 14 264 9.7 19.3 0.00 0.97 0.97 79 1009.5
20260507015817 14 341 4.8 17.7 0.00 0.97 0.97 78 1009.5
20260507015339 14 306 3.2 17.7 0.00 0.97 0.97 78 1009.5
20260507014819 15 296 3.2 17.7 0.00 0.97 0.97 78 1009.5
20260507014320 15 275 4.8 12.9 0.00 0.97 0.97 78 1009.6
20260507013820 15 320 1.6 16.1 0.00 0.97 0.97 77 1009.6
20260507013320 15 313 4.8 16.1 0.00 0.97 0.97 77 1009.7
20260507012841 15 277 3.2 20.9 0.00 0.97 0.97 77 1009.7
20260507012321 15 243 4.8 20.9 0.00 0.97 0.97 77 1009.6
20260507011824 15 298 3.2 24.1 0.00 0.97 0.97 78 1009.7
20260507011324 15 288 8.0 24.1 0.00 0.97 0.97 77 1009.5
20260507010824 15 360 3.2 20.9 0.00 0.97 0.97 78 1009.5
20260507010324 15 306 6.4 20.9 0.00 0.97 0.97 78 1009.3
20260507005825 15 261 1.6 3.2 0.00 0.97 0.97 79 1009.2
20260507005324 15 326 0.0 4.8 0.00 0.97 0.97 79 1009.4
20260507004824 15 312 1.6 8.0 0.00 0.97 0.97 79 1009.2
20260507004323 15 296 1.6 4.8 0.00 0.97 0.97 79 1009.2
20260507003824 15 335 0.0 6.4 0.00 0.97 0.97 79 1009.0
20260507003324 15 256 1.6 9.7 0.00 0.97 0.97 79 1009.2
20260507002825 15 291 3.2 14.5 0.00 0.97 0.97 79 1009.0
20260507002325 15 323 3.2 14.5 0.00 0.97 0.97 79 1008.7
20260507001845 15 284 4.8 14.5 0.00 0.97 0.97 79 1008.5
20260507001324 15 299 6.4 14.5 0.00 0.97 0.97 80 1008.4
20260507000823 16 279 6.4 14.5 0.00 0.97 0.97 80 1008.3
20260507000323 16 355 3.2 17.7 0.00 0.97 0.97 81 1008.1
20260506235825 16 301 3.2 19.3 0.00 0.97 0.97 80 1007.9
20260506235326 16 296 6.4 19.3 0.00 0.97 0.97 81 1007.8
20260506234826 16 322 3.2 16.1 0.00 0.97 0.97 81 1007.7
20260506234347 16 259 3.2 16.1 0.00 0.97 0.97 81 1007.4
20260506233824 16 333 1.6 14.5 0.00 0.97 0.97 82 1007.5
20260506233324 16 313 3.2 14.5 0.00 0.97 0.97 82 1007.5
20260506232826 16 318 6.4 14.5 0.00 0.97 0.97 83 1007.3
20260506232326 16 286 4.8 12.9 0.00 0.97 0.97 83 1007.2
20260506231847 16 292 1.6 16.1 0.00 0.97 0.97 84 1007.2
20260506231327 16 343 4.8 16.1 0.00 0.97 0.97 84 1007.2
20260506230848 16 340 4.8 17.7 0.00 0.97 0.97 85 1007.3
20260506230325 16 338 8.0 17.7 0.03 0.97 0.97 85 1007.2
20260506225826 17 344 3.2 16.1 0.18 0.97 0.97 85 1007.1
20260506225325 17 301 6.4 16.1 0.18 0.97 0.97 86 1007.1
20260506224824 17 348 8.0 16.1 0.18 0.97 0.97 87 1006.9
20260506224324 17 298 3.2 19.3 0.18 0.97 0.97 88 1006.9
20260506223826 17 349 6.4 16.1 0.18 0.97 0.97 88 1006.7
20260506223347 17 312 3.2 8.0 0.18 0.97 0.97 88 1006.8
20260506222825 18 298 0.0 3.2 0.18 0.97 0.97 88 1006.7
20260506222324 18 342 0.0 4.8 0.18 0.97 0.97 88 1006.6
20260506221841 18 317 0.0 4.8 0.18 0.97 0.97 88 1006.5
20260506221342 18 283 0.0 4.8 0.18 0.97 0.97 87 1006.6
20260506220821 18 285 0.0 6.4 0.18 0.97 0.97 86 1006.6
20260506220321 18 279 1.6 8.0 0.08 0.86 0.86 85 1006.5
20260506215822 18 301 0.0 8.0 0.00 0.79 0.79 85 1006.3
20260506215323 18 271 3.2 12.9 0.00 0.79 0.79 84 1006.2
20260506214823 19 248 6.4 16.1 0.00 0.79 0.79 84 1006.1
20260506214343 19 215 8.0 16.1 0.00 0.79 0.79 83 1006.1
20260506213824 19 221 4.8 11.3 0.00 0.79 0.79 83 1006.0
20260506213324 19 291 3.2 8.0 0.00 0.79 0.79 82 1005.9
20260506212825 20 253 3.2 8.0 0.00 0.79 0.79 83 1005.8
20260506212326 20 239 3.2 8.0 0.00 0.79 0.79 83 1005.7
20260506211827 20 225 3.2 8.0 0.00 0.79 0.79 84 1005.6
20260506211349 20 233 3.2 6.4 0.00 0.79 0.79 83 1005.6
20260506210828 20 250 0.0 11.3 0.00 0.79 0.79 83 1005.5
20260506210326 20 279 0.0 11.3 0.00 0.79 0.79 84 1005.5
20260506205828 19 267 1.6 11.3 0.00 0.79 0.79 83 1005.6
20260506205327 19 230 6.4 11.3 0.00 0.79 0.79 83 1005.6
20260506204828 19 232 4.8 11.3 0.00 0.79 0.79 83 1005.6
20260506204328 19 194 6.4 12.9 0.00 0.79 0.79 83 1005.7
20260506203850 19 220 8.0 12.9 0.00 0.79 0.79 83 1005.6
20260506203329 19 236 4.8 11.3 0.00 0.79 0.79 83 1005.6
20260506202811 19 268 3.2 12.9 0.00 0.79 0.79 83 1005.6
20260506202330 19 241 6.4 12.9 0.00 0.79 0.79 83 1005.5
20260506201829 19 234 4.8 12.9 0.00 0.79 0.79 84 1005.5
20260506201350 19 237 6.4 12.9 0.00 0.79 0.79 84 1005.4
20260506200828 19 269 3.2 16.1 0.00 0.79 0.79 85 1005.4
20260506200329 19 216 6.4 16.1 0.00 0.79 0.79 85 1005.5
20260506195849 19 215 8.0 16.1 0.00 0.79 0.79 86 1005.5
20260506195327 18 234 4.8 16.1 0.00 0.79 0.79 86 1005.5
20260506194826 18 198 6.4 14.5 0.00 0.79 0.79 87 1005.6
20260506194326 18 225 9.7 12.9 0.00 0.79 0.79 87 1005.7
20260506193826 18 286 4.8 16.1 0.00 0.79 0.79 87 1005.8
20260506193324 18 214 4.8 16.1 0.00 0.79 0.79 87 1005.9
20260506192824 18 243 6.4 9.7 0.00 0.79 0.79 88 1006.0
20260506192326 18 216 3.2 14.5 0.00 0.79 0.79 88 1006.0
20260506191823 17 226 6.4 14.5 0.00 0.79 0.79 88 1006.0
20260506191323 17 220 4.8 12.9 0.00 0.79 0.79 88 1006.0
20260506190823 17 242 6.4 12.9 0.00 0.79 0.79 88 1006.1
20260506190322 17 225 6.4 12.9 0.00 0.79 0.79 88 1006.0
20260506185823 17 189 6.4 14.5 0.00 0.79 0.79 88 1006.0
20260506185322 17 215 6.4 11.3 0.00 0.79 0.79 89 1006.1
20260506184823 17 203 4.8 14.5 0.00 0.79 0.79 89 1006.1
20260506184325 17 231 6.4 9.7 0.00 0.79 0.79 89 1006.2
20260506183845 17 246 4.8 8.0 0.00 0.79 0.79 90 1006.2
20260506183324 17 207 4.8 9.7 0.00 0.79 0.79 90 1006.3
20260506182824 17 226 6.4 16.1 0.00 0.79 0.79 90 1006.3
20260506182344 17 225 4.8 16.1 0.00 0.79 0.79 90 1006.3
20260506181823 17 227 4.8 11.3 0.00 0.79 0.79 90 1006.2
20260506181324 16 213 3.2 17.7 0.00 0.79 0.79 90 1006.3
20260506180843 16 232 6.4 17.7 0.03 0.79 0.79 90 1006.4
20260506180322 16 216 8.0 14.5 0.03 0.79 0.79 90 1006.5
20260506175824 16 256 4.8 14.5 0.03 0.79 0.79 90 1006.4
20260506175324 16 217 8.0 16.1 0.03 0.79 0.79 90 1006.4
20260506174824 16 196 8.0 16.1 0.03 0.79 0.79 90 1006.4
20260506174345 16 219 3.2 14.5 0.03 0.79 0.79 90 1006.4
20260506173824 16 225 4.8 14.5 0.03 0.79 0.79 90 1006.4
20260506173338 16 240 4.8 16.1 0.03 0.79 0.79 90 1006.5
20260506172817 16 223 6.4 16.1 0.03 0.79 0.79 90 1006.4
20260506172318 16 229 6.4 14.5 0.03 0.79 0.79 89 1006.5
20260506171818 16 220 4.8 12.9 0.03 0.79 0.79 89 1006.5
20260506171317 16 241 4.8 14.5 0.03 0.79 0.79 89 1006.5
20260506170816 16 269 6.4 14.5 0.00 0.76 0.76 89 1006.5
20260506170315 16 223 4.8 12.9 0.00 0.76 0.76 89 1006.6
20260506165814 16 224 3.2 12.9 0.00 0.76 0.76 89 1006.6
20260506165314 16 219 1.6 11.3 0.00 0.76 0.76 89 1006.6
20260506164836 16 234 3.2 11.3 0.00 0.76 0.76 89 1006.6
20260506164336 16 213 6.4 12.9 0.00 0.76 0.76 89 1006.5
20260506163813 16 200 8.0 12.9 0.00 0.76 0.76 89 1006.6
20260506163314 16 223 4.8 16.1 0.00 0.76 0.76 89 1006.6
20260506162815 16 202 6.4 19.3 0.00 0.76 0.76 89 1006.6
20260506162315 16 211 8.0 19.3 0.00 0.76 0.76 90 1006.7
20260506161817 16 230 6.4 9.7 0.00 0.76 0.76 90 1006.7
20260506161317 16 221 6.4 9.7 0.00 0.76 0.76 90 1006.7
20260506160816 16 213 3.2 16.1 0.00 0.76 0.76 90 1006.6
20260506160316 16 159 8.0 16.1 0.03 0.76 0.76 90 1006.6
20260506155816 16 189 6.4 17.7 0.05 0.76 0.76 90 1006.6
20260506155338 16 250 9.7 17.7 0.08 0.76 0.76 90 1006.7
20260506154818 16 221 6.4 12.9 0.10 0.76 0.76 90 1006.7
20260506154339 16 239 3.2 14.5 0.15 0.76 0.76 90 1006.7
20260506153818 16 225 6.4 14.5 0.18 0.76 0.76 90 1006.6
20260506153339 16 214 6.4 12.9 0.20 0.76 0.76 90 1006.5
20260506152820 16 180 6.4 24.1 0.23 0.76 0.76 90 1006.5
20260506152319 16 213 11.3 24.1 0.30 0.76 0.76 90 1006.4
20260506151840 16 209 6.4 11.3 0.36 0.76 0.76 90 1006.6
20260506151312 16 188 4.8 11.3 0.41 0.76 0.76 90 1006.5
20260506150812 16 198 6.4 11.3 0.41 0.76 0.76 90 1006.7
20260506150311 16 199 6.4 11.3 0.41 0.74 0.74 90 1006.6
20260506145812 16 185 6.4 12.9 0.38 0.71 0.71 89 1006.7
20260506145331 16 148 6.4 12.9 0.36 0.69 0.69 89 1006.8
20260506144826 16 171 6.4 14.5 0.36 0.66 0.66 89 1006.8
20260506144323 16 159 4.8 22.5 0.30 0.61 0.64 89 1007.0
20260506143824 16 192 11.3 24.1 0.30 0.58 0.58 89 1007.2
20260506143325 16 192 9.7 24.1 0.30 0.56 0.56 89 1007.3
20260506142825 16 225 14.5 24.1 0.30 0.53 0.53 89 1007.4
20260506142324 16 198 11.3 19.3 0.25 0.46 0.46 89 1007.5
20260506141825 16 221 9.7 16.1 0.23 0.41 0.41 89 1007.4
20260506141325 16 207 8.0 14.5 0.20 0.36 0.36 88 1007.3
20260506140827 16 207 8.0 14.5 0.20 0.36 0.36 88 1007.1
20260506140327 16 207 6.4 19.3 0.20 0.33 0.33 88 1007.0
20260506135847 16 164 11.3 19.3 0.20 0.33 0.33 88 1006.9
20260506135325 16 207 4.8 12.9 0.20 0.33 0.33 88 1006.8
20260506134847 16 213 6.4 12.9 0.18 0.30 0.30 88 1006.8
20260506134327 16 194 3.2 9.7 0.18 0.30 0.30 88 1006.9
20260506133828 16 203 3.2 14.5 0.15 0.28 0.28 88 1006.9
20260506133328 16 171 6.4 14.5 0.10 0.23 0.23 87 1006.9
20260506132827 16 176 6.4 14.5 0.08 0.20 0.20 87 1006.8
20260506132330 16 198 4.8 14.5 0.05 0.18 0.18 87 1007.0
20260506131811 16 211 6.4 16.1 0.08 0.18 0.18 86 1007.1
20260506131312 16 220 6.4 12.9 0.05 0.15 0.15 86 1007.1
20260506130811 16 202 6.4 11.3 0.08 0.15 0.15 86 1007.1
20260506130311 16 175 4.8 16.1 0.05 0.13 0.13 86 1007.0
20260506125812 16 207 6.4 16.1 0.08 0.13 0.13 86 1006.9
20260506125311 16 194 4.8 14.5 0.08 0.13 0.13 86 1006.9
20260506124811 16 194 6.4 14.5 0.10 0.13 0.13 86 1006.9
20260506124331 16 238 6.4 14.5 0.10 0.13 0.13 85 1007.1
20260506123848 16 203 6.4 14.5 0.10 0.13 0.13 85 1007.0
20260506123325 16 215 4.8 14.5 0.10 0.13 0.13 85 1007.1
20260506122824 16 217 6.4 19.3 0.13 0.13 0.13 84 1007.1
20260506122345 16 200 8.0 19.3 0.10 0.10 0.10 84 1007.3
20260506121825 16 191 8.0 17.7 0.10 0.10 0.10 84 1007.4
20260506121326 16 184 8.0 17.7 0.10 0.10 0.10 83 1007.5
20260506120823 16 198 8.0 14.5 0.08 0.08 0.08 83 1007.4
20260506120324 16 196 9.7 16.1 0.08 0.08 0.08 82 1007.6
20260506115824 17 200 6.4 17.7 0.05 0.05 0.05 81 1007.6
20260506115325 17 236 11.3 17.7 0.05 0.05 0.05 80 1007.6
20260506114823 17 183 11.3 19.3 0.03 0.03 0.03 79 1007.5
20260506114322 17 224 11.3 19.3 0.03 0.03 0.03 78 1007.4
20260506113823 17 255 6.4 12.9 0.03 0.03 0.03 76 1007.3
20260506113346 17 224 6.4 14.5 0.03 0.03 0.03 75 1007.1
20260506112825 17 200 6.4 16.1 0.00 0.00 0.00 74 1007.0
20260506112324 18 201 9.7 14.5 0.00 0.00 0.00 72 1006.9
20260506111846 18 181 8.0 16.1 0.00 0.00 0.00 71 1006.9
20260506111325 18 184 8.0 12.9 0.00 0.00 0.00 70 1007.0
20260506110827 18 221 4.8 9.7 0.00 0.00 0.00 70 1006.8
20260506110324 18 192 4.8 17.7 0.00 0.00 0.00 69 1006.7
20260506105825 18 201 6.4 24.1 0.00 0.00 0.00 68 1006.9
20260506105324 19 225 9.7 24.1 0.00 0.00 0.00 66 1006.7
20260506104823 19 198 4.8 12.9 0.00 0.00 0.00 64 1006.7
20260506104323 19 207 8.0 14.5 0.00 0.00 0.00 63 1006.6
20260506103824 19 219 8.0 17.7 0.00 0.00 0.00 63 1006.6
20260506103345 19 236 11.3 17.7 0.00 0.00 0.00 63 1006.5
20260506102825 19 204 11.3 19.3 0.00 0.00 0.00 62 1006.4
20260506102326 19 236 8.0 16.1 0.00 0.00 0.00 62 1006.4
20260506101826 19 162 6.4 14.5 0.00 0.00 0.00 62 1006.3
20260506101327 19 215 3.2 19.3 0.00 0.00 0.00 62 1006.3
20260506100827 19 240 8.0 19.3 0.00 0.00 0.00 61 1006.3
20260506100326 19 197 4.8 14.5 0.00 0.00 0.00 61 1006.2
20260506095848 20 191 8.0 19.3 0.00 0.00 0.00 61 1006.2
20260506095326 20 230 8.0 19.3 0.00 0.00 0.00 60 1006.1
20260506094825 20 232 4.8 19.3 0.00 0.00 0.00 60 1006.0
20260506094328 20 219 11.3 19.3 0.00 0.00 0.00 60 1005.9
20260506093827 20 205 6.4 17.7 0.00 0.00 0.00 60 1006.0
20260506093326 20 217 6.4 27.4 0.00 0.00 0.00 59 1006.1
20260506092849 20 188 14.5 27.4 0.00 0.00 0.00 59 1006.1
20260506092328 20 239 9.7 19.3 0.00 0.00 0.00 59 1006.2
20260506091829 20 241 8.0 25.7 0.00 0.00 0.00 58 1006.3
20260506091351 20 216 11.3 24.1 0.00 0.00 0.00 58 1006.3
20260506090851 20 211 8.0 25.7 0.00 0.00 0.00 58 1006.2
20260506090330 20 211 14.5 25.7 0.00 0.00 0.00 57 1006.3
20260506085851 20 228 8.0 24.1 0.00 0.00 0.00 57 1006.3
20260506085330 20 211 11.3 22.5 0.00 0.00 0.00 57 1006.5
20260506084828 20 219 8.0 16.1 0.00 0.00 0.00 57 1006.4
20260506084345 20 234 8.0 22.5 0.00 0.00 0.00 57 1006.4
20260506083822 20 233 12.9 24.1 0.00 0.00 0.00 57 1006.4
20260506083324 20 241 11.3 22.5 0.00 0.00 0.00 57 1006.5
20260506082827 20 175 9.7 20.9 0.00 0.00 0.00 56 1006.4
20260506082327 20 241 11.3 17.7 0.00 0.00 0.00 56 1006.4
20260506081826 20 238 8.0 17.7 0.00 0.00 0.00 56 1006.4
20260506081326 20 242 8.0 17.7 0.00 0.00 0.00 56 1006.4
20260506080826 20 234 4.8 20.9 0.00 0.00 0.00 55 1006.4
20260506080347 20 253 11.3 20.9 0.00 0.00 0.00 55 1006.3